Location: Freistadt
(48.5112°N, 14.5013°E)
Time: 20:39:49
(UTC+02:00)

VELOX 1 - Pass Details

Date: 26 February 2024
Orbit: 607 x 620 km, 98.4° (Epoch: 13 April)

Event Time Altitude Azimuth Distance (km) Brightness Sun altitude
Rises 06:12:51 0° 147° (SSE) 2,882 ? -7.0°
Reaches altitude 10° 06:15:05 10° 141° (SE) 1,979 ? -6.6°
Maximum altitude 06:19:11 45° 69° (ENE) 847 ? -6.0°
Drops below altitude 10° 06:23:17 10° 357° (N) 1,985 ? -5.3°
Sets 06:25:32 0° 351° (N) 2,892 ? -4.9°
